Temperature
18 18 17 17 17 17 17 16 16 16 16 15 15 15 15 15 15 15 15 14 14 14 14 14 14 14 14 14 14 14 14 14 14 14 14 14 14 14 14 14 14 14 14
18 17 17 17 17 17 17 16 16 16 16 15 15 15 15 15 15 15 15 15 14 14 14 14 14 14 14 14 14 14 14 14 14 14 14 14 14 14 14 14 13 13 13
19 18 17 17 17 17 16 16 16 16 16 15 15 15 15 15 15 15 15 14 14 14 14 14 14 14 14 14 14 14 14 14 14 14 14 15 15 14 14 14 13 13 13
18 18 17 17 17 17 16 16 16 16 16 15 15 15 15 15 15 15 15 15 14 14 14 14 14 14 14 14 14 14 14 14 14 14 14 14 14 14 14 14 13 13 13
18 18 17 17 17 17 16 16 16 16 16 16 15 15 15 15 15 15 15 15 14 14 14 14 14 14 14 14 14 14 14 14 14 14 14 14 14 14 14 14 13 13 13
18 18 17 17 17 16 16 16 16 16 16 16 15 15 15 15 15 15 15 15 14 14 14 14 14 14 14 14 14 14 14 14 14 14 14 14 14 14 14 14 14 13 13
18 18 17 17 17 17 16 16 16 16 16 16 15 15 15 15 15 15 15 15 15 15 14 15 14 14 14 14 14 14 14 14 14 14 14 14 14 13 14 14 14 13 13
18 18 17 17 17 17 17 17 16 16 16 16 15 15 15 15 15 15 15 15 15 15 15 14 14 14 14 14 14 14 14 14 14 14 14 14 13 13 13 13 13 14 13
18 18 17 17 17 17 17 17 16 16 16 16 15 15 15 15 15 15 15 15 14 15 14 14 14 14 14 14 14 14 14 14 14 14 14 13 13 13 13 13 13 13 14
18 17 17 17 17 17 17 17 16 16 16 16 16 15 15 15 15 15 15 15 14 14 14 14 14 14 14 14 14 14 14 14 14 14 14 14 13 13 13 13 13 13 13
18 17 17 17 17 17 17 17 16 16 16 16 16 15 15 15 15 15 15 15 15 14 14 14 14 14 14 14 14 14 14 14 14 14 14 14 13 13 13 13 13 13 13
18 17 17 17 17 17 17 16 16 16 16 16 16 15 15 15 15 15 15 15 15 14 14 14 14 14 14 14 14 14 14 14 14 14 13 13 13 13 13 13 12 12 12
17 17 17 16 16 16 16 16 16 16 16 16 15 15 15 15 15 15 15 15 15 14 14 14 14 14 14 14 14 14 14 14 14 13 13 13 13 13 13 13 12 12 12
17 17 16 16 16 16 16 16 16 16 16 15 15 15 15 15 15 15 15 15 15 14 14 14 14 14 14 14 14 14 14 13 13 13 13 13 13 13 12 13 12 12 12
17 17 16 16 16 16 16 16 15 15 15 15 15 15 15 15 15 15 15 15 14 14 14 14 14 14 14 14 14 13 13 13 13 13 13 13 13 13 12 12 12 12 12
17 17 16 16 16 16 16 16 15 15 15 15 15 15 15 15 15 15 15 14 14 14 14 14 14 14 14 14 14 13 13 13 13 13 13 13 12 13 12 12 12 12 12
17 16 16 16 16 16 16 16 15 15 15 15 15 15 15 15 15 15 14 14 14 14 14 14 13 13 13 13 13 13 13 13 13 13 12 12 12 12 12 12 12 12 12
16 16 16 16 16 16 16 15 15 15 15 15 15 15 14 15 15 14 14 14 14 14 14 13 13 13 13 13 13 13 13 12 12 12 12 12 12 12 12 11 11 11 11
16 16 16 16 16 15 15 15 15 15 15 14 14 14 14 14 14 14 14 14 14 14 14 13 13 13 13 13 13 13 12 12 12 12 12 12 12 12 11 11 11 11 11
16 16 16 15 15 15 15 15 15 14 14 14 14 14 14 14 14 14 14 14 14 13 13 13 13 13 12 13 12 12 12 12 12 12 12 12 11 11 11 11 11 10 10
16 15 15 15 15 15 15 14 14 14 14 14 14 14 14 14 13 13 13 13 13 13 13 12 12 12 12 12 12 12 12 11 11 11 11 11 11 11 11 11 10 10 10
15 15 15 15 15 14 14 14 14 14 13 13 13 13 13 13 13 13 13 13 13 12 12 12 12 12 12 12 12 12 12 11 11 11 11 11 11 11 11 11 10 10 10
15 15 15 14 14 14 14 14 14 13 13 13 13 13 13 13 13 12 12 12 12 12 12 11 11 11 12 12 12 11 11 11 11 11 11 11 11 10 10 10 10 10 9
14 14 14 14 14 14 14 13 13 13 13 13 13 13 12 12 12 12 12 12 11 11 11 11 11 11 11 11 11 11 11 11 11 10 10 10 10 10 10 10 9 9 9
14 14 14 14 13 14 14 13 13 13 13 12 12 12 12 12 12 11 11 11 11 11 11 11 11 11 11 11 11 11 11 11 10 10 10 10 10 9 9 9 9 9 8
13 13 13 13 13 13 13 13 13 12 12 12 12 12 12 11 11 11 11 11 11 11 10 11 10 10 11 11 11 11 11 10 10 10 9 9 9 9 9 9 8 8 8
Wind_Speed
4 5 5 5 4 4 4 4 4 4 3 3 2 2 2 2 2 2 3 3 3 4 4 3 4 4 4 4 5 5 6 5 4 4 4 4 4 4 3 4 4 6 6
5 5 5 5 5 5 4 4 4 3 3 2 2 2 2 1 2 2 3 3 3 4 3 4 4 4 4 4 4 3 3 3 1 1 1 2 3 3 3 3 3 4 5
6 6 6 6 5 5 5 3 3 3 3 3 2 3 3 2 2 2 2 2 3 3 4 4 4 4 3 3 3 2 2 2 2 1 1 0 1 2 2 3 3 3 3
7 7 6 6 6 5 4 4 4 3 3 3 3 3 3 2 2 2 2 3 3 3 3 3 3 3 2 2 2 2 1 1 1 1 1 1 1 0 1 2 3 3 3
8 8 7 6 6 5 5 4 4 3 3 3 3 3 3 2 2 2 3 3 3 3 3 3 3 3 2 2 1 1 1 1 1 0 0 1 1 1 1 1 1 2 2
8 8 7 6 6 5 5 4 4 4 3 3 3 3 3 3 3 3 3 2 2 2 3 2 3 2 2 1 1 1 1 0 0 0 0 0 0 0 0 0 0 1 2
7 8 7 7 6 6 5 5 5 4 4 4 4 4 4 4 4 3 3 2 2 2 2 2 2 2 2 2 1 1 1 1 1 0 0 0 0 0 0 0 1 1 1
7 7 7 7 7 6 6 5 5 5 4 4 4 4 4 3 3 2 2 2 2 2 2 2 2 2 2 2 2 1 1 1 1 1 1 0 0 0 0 0 0 1 1
6 7 7 7 7 7 6 6 5 5 5 5 4 4 4 4 3 3 2 2 2 2 3 3 2 2 2 1 2 1 1 1 1 1 1 1 1 1 0 0 1 1 0
6 6 6 6 6 6 6 6 5 5 5 5 4 3 4 4 3 3 3 3 3 3 3 3 3 2 2 2 1 1 1 2 2 1 1 1 1 1 1 1 0 1 1
6 6 6 6 6 6 6 6 5 5 5 5 4 4 4 4 4 4 3 3 3 3 3 2 2 2 2 2 2 2 2 2 2 2 2 2 2 2 1 1 1 1 1
5 5 6 6 6 6 6 6 6 5 5 5 5 4 4 5 5 4 4 4 4 3 3 3 2 2 2 2 3 3 2 2 2 2 2 3 3 2 1 1 1 1 1
5 5 6 6 6 6 5 5 5 5 4 5 5 5 5 5 5 5 4 4 4 4 3 3 3 3 3 3 3 3 2 2 2 2 2 2 3 3 2 1 1 1 1
5 5 6 6 6 6 5 5 5 4 4 5 5 5 5 5 5 5 4 4 4 4 4 4 3 3 3 3 3 3 3 2 2 2 2 2 2 2 2 2 1 1 1
5 5 6 6 6 5 5 5 5 5 5 5 5 4 4 4 5 5 5 4 4 4 4 4 4 3 3 3 3 3 3 3 2 2 2 2 2 3 1 0 1 2 2
5 5 5 6 6 6 5 5 5 5 5 5 5 4 4 4 4 4 4 4 4 4 4 4 4 4 3 3 2 3 3 3 3 3 3 3 3 3 3 1 1 0 2
5 5 5 5 6 6 6 6 5 5 5 5 5 5 5 5 4 4 4 4 4 4 5 5 4 4 4 6 5 4 3 3 3 3 3 3 2 3 3 4 5 3 2
5 5 5 5 5 5 5 5 5 5 5 4 4 4 5 5 4 4 4 4 4 4 4 4 5 4 4 6 5 5 5 4 3 3 3 3 3 2 2 2 3 2 2
5 5 5 5 5 5 5 5 5 5 5 4 4 5 5 5 5 5 4 4 4 4 4 4 4 5 5 6 5 5 4 4 4 3 3 3 3 3 2 3 3 3 2
4 4 4 4 4 4 5 5 5 5 5 4 4 4 5 5 5 5 4 4 4 4 3 3 3 4 4 6 6 6 4 4 4 3 3 2 2 3 3 4 4 4 3
3 4 5 4 4 4 5 5 5 5 4 4 4 4 4 5 4 4 3 4 4 4 4 4 3 3 3 6 6 5 4 4 4 3 3 2 4 4 3 4 3 2 2
4 5 5 4 4 5 5 4 4 3 3 4 4 4 4 4 4 4 4 4 4 4 4 4 3 3 3 3 5 5 4 3 4 3 3 2 5 4 3 3 1 1 1
4 5 5 5 5 5 5 5 3 3 4 4 4 4 4 4 4 4 4 4 4 4 4 4 4 3 3 3 5 6 5 3 3 2 2 2 4 4 4 3 3 3 3
4 4 5 6 5 5 5 4 3 3 4 5 4 4 4 3 3 3 4 4 4 4 4 4 4 4 3 3 3 3 4 5 4 3 3 4 4 3 2 2 3 3 3
4 4 5 6 6 5 5 4 4 4 4 4 4 4 4 3 3 3 2 4 4 3 4 4 4 4 4 3 2 3 3 3 4 4 3 3 3 3 3 3 3 3 3
4 4 5 5 6 5 5 4 4 5 4 4 4 3 3 3 3 3 2 1 1 1 1 1 3 3 2 2 4 4 3 3 4 4 4 4 4 4 4 4 4 4 4
Wind_Direction
167 166 168 163 161 162 165 155 150 139 133 135 135 117 87 75 71 62 57 65 84 92 100 107 102 103 104 104 105 105 106 103 107 109 100 92 83 72 70 64 67 70 65
172 164 170 169 173 168 168 164 155 147 144 136 122 112 104 88 77 73 78 78 92 99 107 114 119 120 114 116 109 111 114 115 130 106 122 124 119 80 69 73 71 72 73
190 177 176 175 175 175 175 175 169 162 157 146 131 132 129 129 127 108 87 80 90 101 108 122 129 128 126 122 121 134 146 140 133 5 331 350 69 98 97 72 78 74 69
195 187 181 181 180 180 180 181 167 163 159 162 162 165 164 145 126 116 108 114 107 107 114 130 142 142 139 138 135 142 175 190 158 128 11 360 26 323 120 110 81 76 70
197 194 190 186 182 177 179 175 167 164 164 169 162 178 160 137 131 130 128 123 113 111 118 127 139 141 149 156 145 168 210 225 251 291 117 92 90 294 309 97 87 96 86
192 190 185 181 176 172 173 174 173 168 167 177 180 180 164 162 158 156 146 141 130 122 124 132 140 138 140 147 153 160 175 214 308 299 293 225 290 359 17 186 128 89 84
183 182 180 180 176 174 175 177 174 174 175 180 185 187 182 184 183 177 165 163 148 136 135 147 148 138 132 135 146 153 157 145 142 108 350 343 336 301 251 170 110 109 116
177 178 179 179 179 178 176 178 177 180 182 187 187 187 184 189 188 187 186 180 158 140 135 144 142 135 143 147 145 159 147 140 134 117 111 128 82 299 280 188 154 165 139
177 178 178 181 182 182 180 182 182 184 187 191 191 190 188 189 188 190 191 191 174 155 154 152 148 141 143 156 165 160 144 135 135 118 120 115 105 107 100 173 253 284 241
176 176 176 180 183 184 184 186 191 191 188 194 195 194 198 193 194 191 184 183 174 168 178 172 168 158 151 159 160 165 152 162 129 107 111 109 107 103 117 153 242 322 314
181 178 176 176 174 174 179 184 190 192 191 196 193 191 192 191 189 187 182 185 179 175 182 186 181 170 171 171 165 174 164 166 145 132 127 124 106 113 117 130 129 52 39
178 176 172 167 168 173 179 183 186 189 191 193 193 192 188 189 190 188 188 188 182 180 181 175 173 166 178 181 168 164 167 161 149 139 136 134 127 123 113 123 126 95 32
172 171 169 171 176 180 182 182 181 182 184 189 193 194 191 191 193 191 187 190 189 185 184 184 184 177 178 178 174 172 167 154 148 149 142 133 135 135 123 138 135 125 112
170 170 173 179 182 184 184 182 179 179 178 181 188 193 192 192 196 191 188 194 192 191 191 189 189 189 188 188 187 175 173 167 155 148 140 139 147 146 148 155 152 144 140
178 180 183 182 183 183 183 182 180 180 180 181 188 194 190 183 189 188 194 195 192 197 195 195 195 194 196 193 191 185 184 177 171 159 154 131 100 60 61 101 166 164 171
196 196 194 188 188 187 185 185 186 186 184 185 189 185 182 177 183 187 190 191 195 199 195 200 200 196 188 132 163 219 185 183 184 182 172 155 159 148 151 119 59 21 209
204 201 201 196 193 191 190 187 190 188 187 189 188 185 185 180 182 182 182 187 193 193 197 200 199 198 168 147 170 211 210 195 193 194 182 171 174 194 190 172 179 189 230
208 204 198 193 195 190 185 183 182 185 188 188 186 183 184 182 180 181 188 198 196 190 196 198 201 198 173 157 174 195 213 205 197 202 202 192 193 186 211 201 201 207 204
210 203 195 188 183 180 180 178 179 183 188 192 194 187 186 183 183 185 190 194 192 190 194 195 197 196 181 162 180 200 203 208 205 203 206 207 207 125 183 224 225 223 216
201 193 183 177 174 171 176 182 185 186 192 198 198 191 187 183 189 194 192 186 189 191 191 190 197 195 194 157 177 211 207 210 210 207 197 168 218 139 189 224 230 234 233
189 178 171 170 172 168 172 182 186 193 193 188 184 184 182 184 185 186 189 188 186 186 193 190 195 199 195 159 164 202 219 216 218 216 212 186 151 168 198 238 245 263 269
184 173 172 173 169 167 172 182 192 195 184 177 178 182 181 181 182 181 188 191 187 191 197 202 200 203 190 171 165 181 222 251 222 222 222 182 150 177 207 228 194 118 213
185 181 178 176 176 177 184 189 185 176 180 180 182 184 182 183 189 190 190 193 196 203 207 210 214 209 195 169 160 180 195 215 224 216 127 137 167 187 201 200 189 192 217
192 189 187 187 189 189 193 194 179 178 183 185 187 187 184 185 189 197 202 202 206 210 213 216 221 219 206 200 188 194 195 192 210 210 157 162 182 206 216 188 198 220 233
207 199 200 199 198 192 191 188 179 184 190 190 190 191 188 189 194 197 212 217 217 222 221 223 226 225 224 210 197 212 212 213 210 206 202 205 203 210 215 222 223 226 229
212 206 203 204 201 193 188 183 182 190 195 198 196 195 195 195 198 194 186 54 239 149 201 256 244 240 238 169 182 202 204 192 188 204 216 220 223 229 231 232 235 236 239
Height
1543 1544 1545 1546 1547 1548 1549 1550 1550 1551 1551 1551 1552 1552 1552 1552 1552 1552 1551 1551 1551 1551 1551 1552 1552 1552 1552 1552 1553 1553 1553 1553 1553 1554 1554 1554 1554 1554 1554 1554 1554 1553 1553
1542 1543 1544 1545 1547 1548 1549 1550 1550 1551 1551 1551 1552 1552 1552 1552 1552 1552 1552 1552 1552 1552 1552 1553 1553 1553 1553 1553 1554 1554 1554 1554 1554 1555 1556 1556 1557 1555 1555 1555 1554 1554 1554
1540 1542 1544 1545 1546 1547 1548 1549 1550 1550 1551 1551 1551 1552 1552 1553 1553 1553 1553 1553 1553 1553 1553 1554 1554 1554 1554 1555 1554 1555 1555 1556 1556 1556 1557 1556 1556 1557 1557 1556 1555 1555 1554
1539 1541 1542 1544 1545 1546 1548 1549 1549 1550 1550 1551 1551 1552 1553 1553 1554 1554 1554 1554 1554 1554 1554 1554 1555 1555 1555 1555 1556 1556 1556 1556 1556 1556 1556 1557 1556 1556 1557 1557 1556 1555 1555
1537 1539 1541 1543 1544 1545 1547 1548 1549 1549 1550 1550 1551 1552 1553 1553 1554 1554 1554 1555 1555 1555 1555 1555 1555 1556 1556 1556 1556 1556 1556 1556 1557 1557 1556 1556 1556 1556 1556 1556 1557 1556 1555
1536 1538 1540 1542 1543 1544 1545 1546 1548 1548 1549 1550 1551 1552 1552 1553 1554 1554 1555 1555 1555 1555 1555 1556 1556 1556 1556 1556 1556 1556 1556 1556 1556 1556 1556 1556 1556 1556 1556 1556 1556 1556 1555
1534 1536 1538 1540 1541 1543 1544 1545 1547 1548 1549 1549 1550 1551 1552 1553 1553 1554 1555 1555 1555 1556 1556 1556 1556 1556 1556 1556 1556 1556 1556 1556 1556 1556 1556 1556 1556 1555 1555 1556 1555 1555 1556
1532 1534 1536 1538 1540 1541 1543 1544 1546 1547 1548 1549 1550 1551 1551 1552 1553 1553 1554 1555 1555 1555 1555 1556 1556 1556 1556 1556 1556 1556 1556 1556 1556 1556 1555 1555 1555 1555 1555 1555 1555 1555 1556
1531 1533 1535 1537 1539 1540 1542 1543 1545 1546 1547 1548 1549 1550 1551 1551 1552 1553 1554 1554 1555 1555 1555 1556 1556 1556 1556 1556 1556 1556 1556 1556 1556 1556 1555 1555 1555 1554 1554 1554 1555 1556 1555
1530 1532 1534 1535 1537 1539 1540 1542 1543 1545 1546 1547 1547 1548 1549 1550 1551 1552 1553 1553 1554 1554 1555 1555 1555 1555 1555 1555 1555 1555 1555 1555 1555 1555 1555 1554 1554 1554 1554 1554 1554 1554 1555
1529 1531 1532 1534 1536 1537 1539 1540 1542 1543 1544 1545 1546 1547 1548 1549 1550 1551 1551 1552 1553 1554 1554 1555 1555 1555 1555 1555 1554 1555 1555 1555 1555 1554 1554 1554 1554 1554 1554 1554 1554 1554 1554
1528 1529 1531 1532 1534 1535 1537 1538 1539 1541 1542 1543 1544 1545 1546 1547 1548 1549 1550 1551 1552 1553 1553 1554 1554 1554 1554 1554 1554 1554 1554 1554 1554 1554 1554 1554 1554 1554 1554 1554 1554 1554 1554
1526 1528 1529 1530 1532 1534 1535 1536 1537 1538 1540 1541 1542 1543 1545 1546 1547 1548 1549 1550 1551 1551 1552 1552 1553 1553 1553 1553 1553 1553 1554 1554 1553 1553 1553 1553 1554 1553 1553 1553 1553 1553 1553
1525 1526 1527 1529 1530 1532 1533 1534 1535 1536 1537 1539 1540 1541 1543 1544 1545 1546 1547 1548 1549 1550 1550 1551 1551 1552 1552 1552 1552 1552 1552 1553 1553 1553 1553 1553 1553 1553 1553 1553 1553 1553 1552
1524 1525 1526 1527 1528 1530 1531 1532 1533 1534 1535 1537 1538 1539 1541 1542 1543 1544 1545 1546 1547 1548 1549 1549 1550 1550 1550 1551 1551 1551 1551 1551 1552 1552 1552 1552 1552 1552 1552 1552 1552 1552 1552
1521 1523 1524 1525 1526 1527 1529 1530 1531 1532 1534 1535 1536 1537 1538 1540 1541 1542 1543 1544 1545 1546 1546 1547 1548 1548 1548 1548 1549 1549 1550 1550 1550 1550 1551 1550 1550 1550 1550 1550 1550 1550 1550
1519 1520 1522 1522 1524 1525 1526 1527 1529 1531 1532 1533 1534 1535 1536 1537 1539 1540 1541 1542 1543 1543 1544 1545 1545 1546 1546 1547 1547 1547 1548 1549 1549 1549 1549 1549 1549 1549 1549 1549 1549 1548 1548
1517 1518 1519 1520 1522 1523 1524 1525 1527 1528 1530 1531 1532 1533 1534 1535 1536 1537 1538 1539 1541 1541 1542 1542 1543 1544 1544 1544 1545 1546 1546 1547 1547 1547 1547 1547 1547 1547 1547 1548 1547 1547 1546
1514 1516 1517 1518 1519 1520 1522 1523 1524 1526 1527 1528 1529 1530 1531 1532 1534 1535 1536 1537 1538 1538 1539 1540 1541 1541 1542 1542 1543 1544 1544 1545 1545 1545 1545 1545 1546 1545 1545 1545 1545 1545 1544
1512 1513 1515 1516 1517 1518 1519 1521 1522 1523 1524 1525 1526 1528 1529 1530 1531 1532 1533 1534 1535 1536 1536 1537 1538 1539 1539 1540 1540 1541 1542 1542 1543 1543 1543 1543 1543 1543 1543 1543 1543 1542 1542
1509 1510 1512 1513 1514 1516 1517 1518 1519 1520 1522 1523 1524 1525 1526 1527 1528 1529 1530 1531 1532 1533 1534 1535 1535 1536 1537 1537 1538 1538 1539 1540 1540 1540 1540 1540 1540 1540 1540 1540 1540 1539 1539
1506 1508 1509 1510 1512 1513 1514 1516 1517 1518 1519 1520 1521 1522 1523 1524 1526 1526 1527 1528 1529 1530 1531 1532 1533 1533 1534 1534 1535 1536 1536 1537 1537 1537 1538 1537 1537 1537 1537 1537 1536 1536 1536
1504 1505 1507 1508 1509 1511 1512 1513 1514 1515 1516 1518 1519 1520 1521 1522 1523 1524 1525 1525 1526 1527 1528 1529 1530 1531 1531 1531 1532 1533 1533 1534 1534 1534 1534 1535 1535 1534 1534 1534 1533 1533 1532
1501 1503 1504 1505 1506 1508 1509 1511 1512 1513 1514 1515 1516 1517 1518 1519 1519 1520 1521 1522 1523 1524 1525 1526 1527 1528 1528 1529 1529 1530 1530 1531 1531 1531 1531 1531 1531 1531 1531 1531 1530 1530 1529
1498 1500 1501 1501 1503 1504 1506 1507 1508 1510 1511 1512 1513 1514 1515 1515 1516 1517 1518 1518 1520 1520 1522 1522 1523 1524 1524 1525 1526 1526 1527 1527 1527 1528 1528 1528 1528 1528 1528 1527 1527 1526 1526
1495 1496 1497 1498 1500 1501 1502 1504 1505 1506 1508 1509 1510 1510 1511 1512 1512 1513 1514 1515 1516 1516 1517 1518 1519 1520 1521 1521 1522 1522 1523 1524 1524 1525 1524 1524 1524 1524 1523 1523 1523 1522 1522